EHI
0 0 0 0 0 0 0 0 0 0 0 0 0 0 0 0 0 0 0 0 0 0 0 0 0 0 0 0 0 0 0 0 0 0 0 0 0 0 0 0 0 0 0
0 0 0 0 0 0 0 0 0 0 0 0 0 0 0 0 0 0 0 0 0 0 0 0 0 0 0 0 0 0 0 0 0 0 0 0 0 0 0 0 0 0 0
0 0 0 0 0 0 0 0 0 0 0 0 0 0 0 0 0 0 0 0 0 0 0 0 0 0 0 0 0 0 0 0 0 0 0 0 0 0 0 0 0 0 0
0 0 0 0 0 0 0 0 0 0 0 0 0 0 0 0 0 0 0 0 0 0 0 0 0 0 0 0 0 0 0 0 0 0 0 0 0 0 0 0 0 0 0
0 0 0 0 0 0 0 0 0 0 0 0 0 0 0 0 0 0 0 0 0 0 0 0 0 0 0 0 0 0 0 0 0 0 0 0 0 0 0 0 0 0 0
0 0 0 0 0 0 0 0 0 0 0 0 0 0 0 0 0 0 0 0 0 0 0 0 0 0 0 0 0 0 0 0 0 0 0 0 0 0 0 0 0 0 0
0 0 0 0 0 0 0 0 0 0 0 0 0 0 0 0 0 0 0 0 0 0 0 0 0 0 0 0 0 0 0 0 0 0 0 0 0 0 0 0 0 0 0
0 0 0 0 0 0 0 0 0 0 0 0 0 0 0 0 0 0 0 0 0 0 0 0 0 0 0 0 0 0 0 0 0 0 0 0 0 0 0 0 0 0 0
0 0 0 0 0 0 0 0 0 0 0 0 0 0 0 0 0 0 0 0 0 0 0 0 0 0 0 0 0 0 0 0 0 0 0 0 0 0 0 0 0 0 0
0 0 0 0 0 0 0 0 0 0 0 0 0 0 0 0 0 0 0 0 0 0 0 0 0 0 0 0 0 0 0 0 0 0 0 0 0 0 0 0 0 0 0
0 0 0 0 0 0 0 0 0 0 0 0 0 0 0 0 0 0 0 0 0 0 0 0 0 0 0 0 0 0 0 0 0 0 0 0 0 0 0 0 0 0 0
0 0 0 0 0 0 0 0 0 0 0 0 0 0 0 0 0 0 0 0 0 0 0 0 0 0 0 0 0 0 0 0 0 0 0 0 0 0 0 0 0 0 0
0 0 0 0 0 0 0 0 0 0 0 0 0 0 0 0 0 0 0 0 0 0 0 0 0 0 0 0 0 0 0 0 0 0 0 0 0 0 0 0 0 0 0
0 0 0 0 0 0 0 0 0 0 0 0 0 0 0 0 0 0 0 0 0 0 0 0 0 0 0 0 0 0 0 0 0 0 0 0 0 0 0 0 0 0 0
0 0 0 0 0 0 0 0 0 0 0 0 0 0 0 0 0 0 0 0 0 0 0 0 0 0 0 0 0 0 0 0 0 0 0 0 0 0 0 0 0 0 0
0 0 0 0 0 0 0 0 0 0 0 0 0 0 0 0 0 0 0 0 0 0 0 0 0 0 0 0 0 0 0 0 0 0 0 0 0 0 0 0 0 0 0
0 0 0 0 0 0 0 0 0 0 0 0 0 0 0 0 0 0 0 0 0 0 0 0 0 0 0 0 0 0 0 0 0 0 0 0 0 0 0 0 0 0 0
0 0 0 0 0 0 0 0 0 0 0 0 0 0 0 0 0 0 0 0 0 0 0 0 0 0 0 0 0 0 0 0 0 0 0 0 0 0 0 0 0 0 0
0 0 0 0 0 0 0 0 0 0 0 0 0 0 0 0 0 0 0 0 0 0 0 0 0 0 0 0 0 0 0 0 0 0 0 0 0 0 0 0 0 0 0
0 0 0 0 0 0 0 0 0 0 0 0 0 0 0 0 0 0 0 0 0 0 0 0 0 0 0 0 0 0 0 0 0 0 0 0 0 0 0 0 0 0 0
0 0 0 0 0 0 0 0 0 0 0 0 0 0 0 0 0 0 0 0 0 0 0 0 0 0 0 0 0 0 0 0 0 0 0 0 0 0 0 0 0 0 0
0 0 0 0 0 0 0 0 0 0 0 0 0 0 0 0 0 0 0 0 0 0 0 0 0 0 0 0 0 0 0 0 0 0 0 0 0 0 0 0 0 0 0
0 0 0 0 0 0 0 0 0 0 0 0 0 0 0 0 0 0 0 0 0 0 0 0 0 0 0 0 0 0 0 0 0 0 0 0 0 0 0 0 0 0 0
0 0 0 0 0 0 0 0 0 0 0 0 0 0 0 0 0 0 0 0 0 0 0 0 0 0 0 0 0 0 0 0 0 0 0 0 0 0 0 0 0 0 0
0 0 0 0 0 0 0 0 0 0 0 0 0 0 0 0 0 0 0 0 0 0 0 0 0 0 0 0 0 0 0 0 0 0 0 0 0 0 0 0 0 0 0
0 0 0 0 0 0 0 0 0 0 0 0 0 0 0 0 0 0 0 0 0 0 0 0 0 0 0 0 0 0 0 0 0 0 0 0 0 0 0 0 0 0 0
Wind_Speed
17 17 17 16 15 14 13 13 13 12 11 10 9 7 6 4 3 2 2 2 4 5 5 6 7 8 7 7 8 9 10 11 16 15 13 14 18 18 16 16 16 17 16
16 17 17 16 15 14 14 13 13 12 10 9 8 6 5 3 2 2 3 4 5 6 6 7 8 7 9 9 8 10 10 12 15 19 15 15 18 18 18 18 16 14 16
17 17 17 16 15 15 14 13 12 11 10 8 7 5 4 2 2 3 4 5 6 7 7 8 9 9 11 10 11 11 11 11 13 16 17 15 14 14 17 17 18 15 16
17 17 17 16 15 15 14 13 11 10 9 7 6 4 3 1 2 4 5 7 7 8 8 8 9 10 11 12 11 13 13 14 14 15 15 15 15 16 16 15 15 14 14
17 16 15 15 15 14 13 12 10 9 8 6 5 3 1 1 2 5 7 8 8 9 9 9 10 12 15 14 12 13 14 13 13 14 15 15 15 15 15 14 15 16 16
16 16 15 15 14 13 12 11 10 8 7 5 3 2 1 2 4 8 9 9 9 9 10 10 11 12 14 18 20 20 20 17 16 15 15 16 19 18 16 15 16 17 17
16 16 15 15 14 12 11 10 9 7 5 4 2 1 3 3 6 9 10 10 10 9 10 11 10 10 15 13 17 20 20 22 22 18 18 18 19 18 18 19 18 18 18
16 15 14 14 13 12 10 9 7 5 4 2 1 2 4 4 7 10 12 11 9 10 11 12 12 13 13 16 17 17 16 16 17 15 15 17 17 18 18 18 19 19 18
15 14 13 13 12 11 9 8 5 4 2 1 1 3 5 5 6 10 12 10 9 11 11 12 13 14 17 21 18 17 17 15 16 19 22 23 26 26 21 13 14 14 16
14 13 12 11 11 10 8 6 4 2 1 1 2 4 5 6 7 11 13 8 9 10 10 11 14 15 19 22 17 16 17 16 15 16 17 17 17 17 19 13 11 12 14
14 13 12 10 9 8 7 5 3 1 0 2 4 4 5 6 8 10 13 9 9 10 10 10 10 18 21 23 21 15 17 18 16 15 13 13 12 11 11 11 10 10 13
13 12 11 9 7 6 6 4 2 0 2 3 5 6 4 5 6 10 14 14 14 12 11 10 12 21 23 23 17 17 21 18 11 10 11 11 11 11 11 13 14 14 14
13 11 10 9 7 5 4 3 1 1 2 4 4 5 6 5 7 11 14 16 17 12 11 17 20 22 20 15 15 18 16 9 9 10 11 11 11 12 13 12 14 13 15
12 10 8 7 6 4 2 1 1 2 3 4 5 6 7 7 7 8 9 11 13 12 11 15 19 17 14 14 14 11 8 8 10 10 11 11 12 11 11 11 12 12 12
11 8 7 5 4 3 2 2 2 2 4 6 6 7 8 8 10 17 14 10 11 11 13 11 9 9 9 9 9 9 9 9 9 9 10 11 11 11 11 10 10 11 12
9 7 5 4 3 2 1 1 1 3 6 8 9 10 9 12 17 18 18 18 19 18 13 9 8 9 9 10 10 11 10 10 10 10 10 11 11 11 12 11 10 11 12
8 6 4 3 2 2 2 3 4 3 5 6 8 11 13 16 17 17 17 18 16 14 8 7 8 9 9 9 10 10 11 11 10 10 11 11 11 11 11 11 11 11 11
8 6 4 3 2 2 3 4 4 6 7 7 8 11 14 16 17 16 17 14 9 7 6 8 8 9 9 10 10 10 11 11 10 10 11 11 10 11 11 11 11 12 12
6 4 3 3 2 2 3 4 4 6 6 7 8 9 13 15 15 14 13 7 8 8 8 8 9 9 10 10 10 10 11 11 12 11 11 11 10 11 11 11 11 16 14
5 6 4 2 2 3 3 4 5 6 7 7 8 8 10 11 9 9 8 7 7 8 9 9 9 10 10 10 10 10 11 11 12 11 11 11 10 10 11 13 12 12 11
4 4 4 2 3 3 4 4 5 6 6 7 8 9 15 10 9 9 9 8 8 9 9 10 10 10 10 9 10 11 13 11 11 11 11 11 11 11 11 11 11 11 11
3 3 2 3 3 3 4 4 5 6 7 8 8 9 14 9 8 8 9 9 9 9 9 10 10 10 10 10 10 11 12 12 12 11 11 11 11 11 11 11 10 10 10
3 2 2 2 3 5 4 4 5 6 7 8 8 8 8 8 8 9 9 10 10 10 9 9 10 11 10 10 10 11 12 12 12 12 12 12 12 11 10 10 11 10 10
2 2 3 3 3 4 5 5 5 6 7 8 8 8 8 9 9 10 10 10 10 10 10 10 11 15 18 14 11 11 11 13 13 13 16 13 11 9 9 8 9 9 9
2 2 3 3 4 4 5 5 6 6 7 7 8 8 9 9 10 10 10 10 12 12 14 13 11 12 16 19 18 15 18 23 21 13 9 8 9 9 8 8 7 8 8
2 3 3 3 4 4 5 6 6 7 7 7 8 8 9 9 10 10 10 10 11 12 13 12 14 17 20 17 17 20 23 22 18 15 8 6 7 7 8 6 8 7 7
Wind_Direction
142 138 136 136 137 136 133 132 132 133 135 136 137 139 141 146 160 198 243 265 281 288 287 290 293 297 294 292 289 285 283 284 288 294 298 302 301 299 298 296 294 293 292
137 135 133 134 135 132 130 131 131 131 132 133 136 137 137 147 184 242 268 277 286 291 294 293 295 299 295 293 290 288 287 287 289 296 299 300 300 300 299 299 298 295 294
134 132 132 134 133 131 130 130 129 128 129 132 135 136 139 157 225 268 282 286 287 289 292 294 297 299 297 296 296 292 290 289 288 291 296 299 299 301 303 300 300 298 298
133 132 132 132 130 128 127 127 127 129 130 132 131 130 140 188 253 277 286 288 288 288 288 289 292 294 297 299 296 294 294 295 294 293 294 299 301 304 304 305 304 303 300
131 128 126 125 124 124 124 124 125 124 125 128 131 138 168 252 285 301 295 291 291 292 290 288 288 292 294 295 295 297 300 297 295 294 296 300 302 307 306 308 305 304 299
127 124 124 125 124 124 124 125 124 124 127 132 138 157 241 288 313 302 305 300 294 292 295 296 296 293 294 298 299 299 296 293 294 295 297 298 300 303 307 305 303 303 303
123 123 125 125 124 124 125 126 128 129 133 143 153 240 287 311 308 308 309 301 296 296 298 298 299 298 303 301 300 297 294 291 290 293 293 294 299 303 303 302 301 300 298
122 123 125 125 124 126 127 126 127 130 139 153 201 292 299 308 312 312 311 300 295 294 296 299 300 303 304 306 303 300 297 296 294 293 291 292 293 295 296 298 298 296 292
123 125 127 127 127 128 128 127 128 135 143 178 280 294 299 306 316 313 315 308 298 299 300 299 300 299 303 307 305 303 302 300 299 297 293 290 291 294 296 295 295 295 296
123 123 123 125 126 126 124 124 124 133 143 280 287 293 299 306 314 312 318 306 304 304 302 300 299 302 307 309 309 307 305 308 308 303 298 296 295 294 294 289 290 291 296
118 117 116 117 116 118 118 118 123 127 272 298 298 300 296 301 308 313 316 311 309 308 305 304 303 309 310 312 313 307 305 308 304 303 303 301 300 299 299 299 294 287 286
115 113 112 111 109 113 116 117 114 22 310 311 309 311 305 305 302 313 317 314 312 307 305 305 307 311 313 315 312 308 309 310 304 304 302 301 303 304 303 301 295 287 275
114 112 110 108 106 111 113 112 94 338 322 318 314 312 314 316 316 317 316 314 314 309 304 306 309 311 315 313 309 311 312 307 305 303 300 301 302 300 299 298 297 293 288
115 114 115 114 112 107 97 70 360 340 326 317 316 316 317 315 318 323 321 318 317 314 312 309 310 311 310 306 308 310 307 303 305 299 299 299 299 299 299 301 303 306 303
113 113 112 108 109 100 75 30 340 336 325 321 323 321 317 316 322 323 320 318 318 316 317 309 308 312 314 315 314 313 311 309 307 303 301 301 302 302 302 304 301 301 297
115 113 109 106 96 69 22 349 251 299 321 320 322 322 316 314 319 322 322 322 322 322 318 308 311 314 313 315 315 313 312 311 309 306 302 299 300 302 302 303 301 300 299
110 109 105 97 78 41 2 343 333 318 307 316 326 329 326 324 325 325 326 327 324 324 315 311 311 309 308 307 307 306 306 307 306 301 298 298 298 298 299 300 302 301 300
102 97 94 85 61 25 359 343 334 330 327 328 331 331 332 332 328 329 333 330 323 326 318 311 307 306 305 304 303 302 303 304 303 301 299 297 296 297 297 298 300 301 302
99 96 89 74 46 14 352 337 330 325 321 321 323 329 337 331 327 331 337 328 321 318 314 308 304 303 301 300 299 299 299 298 298 299 296 296 296 296 295 296 297 300 302
91 84 72 53 29 5 348 337 332 328 324 323 326 332 332 328 328 330 331 322 316 311 309 306 303 300 299 297 297 297 297 296 297 295 295 295 295 294 294 296 297 300 301
90 83 63 40 19 356 340 336 331 326 325 324 323 327 330 325 321 320 319 317 314 310 307 304 301 299 296 295 294 294 295 293 293 293 293 293 295 295 294 293 295 296 299
79 67 42 20 360 344 339 334 327 324 323 321 320 323 327 323 316 315 315 313 310 305 303 300 297 295 294 293 293 293 292 292 292 292 292 293 293 292 292 292 296 303 308
70 54 27 3 346 335 331 329 327 322 320 319 319 319 320 319 318 314 311 310 309 306 304 299 296 295 294 293 291 287 285 285 286 288 289 289 289 290 294 300 306 312 316
57 29 1 347 337 331 330 327 323 321 319 318 316 315 315 315 312 311 309 307 307 305 303 301 296 295 297 298 294 289 283 283 284 280 278 278 287 296 303 310 314 321 322
36 4 345 338 331 326 323 320 319 318 315 312 311 311 312 311 309 308 308 307 307 304 305 305 299 299 301 302 300 296 294 298 301 302 300 305 310 314 316 318 323 326 330
8 345 334 328 323 320 317 315 313 314 310 308 306 306 306 305 305 305 306 306 308 307 306 305 303 305 305 304 301 303 308 314 324 333 332 320 321 327 332 329 333 334 339